Погода в Юбилейном

Россия / Калужская область     54°46′02″N   36°17′01″E
темп.,
°C
ветер,
м/с
пор.,
м/с
влажн.,
%
обл.,
%
осадки,
мм/ч
давл.,
гПа
погр.,
м
25 июля, вс
вс2500:00+12с22715 0.0 101810
03:00+10с11783 0.0 101910
06:00+12ссз11723 0.0 102011
09:00+19с11464 0.0 1020494
12:00+23ссв123212 0.0 10212311
15:00+24с223121 0.0 10202546
18:00+23ссв22356 0.0 10201583
21:00+17вюв335571 0.0 102131
26 июля, пн
пн2600:00+16ююв225998 0.0 102242
03:00+16ююв1258100 0.0 102320
06:00+16ю1158100 0.0 102322
09:00+20юз2347100 0.0 1023269
12:00+21юз345099 0.0 1024298
15:00+25юз233688 0.0 10231371
18:00+25с224386 0.0 1022614
21:00+20юв225599 0.0 102319
27 июля, вт
вт2700:00+16юз11715 0.0 102311
03:00+15юз1174100 0.0 102313
06:00+17ююз116992 0.0 102318
09:00+22юз225644 0.1 1023389
12:00+25с124971 0.0 1022905
15:00+27в233992 0.0 10202267
18:00+20всв346685 0.2 102054
21:00+18юв33711 0.3 102027
28 июля, ср
ср2800:00+17ю358092 0.0 102070
03:00+16ю358493 0.0 101982
06:00+17ю3786100 0.4 1018159
09:00+18ююз3886100 0.8 1017269
12:00+21ююз5968100 0.1 1016842
15:00+17ююв51494100 2.8 1015760
18:00+17ююв61294100 1.1 1012558
21:00+18ю61395100 2.7 1009678
29 июля, чт
чт2900:00+18ююз5109799 0.2 1008355
03:00+17зюз4109962 0.3 1007371
06:00+17з499764 0.1 1006490
09:00+18зсз489247 0.3 1007552
12:00+23сз585536 0.2 10071461
15:00+26зсз674899 0.2 10061885
18:00+23з3864100 0.0 1005336
21:00+20зсз51076100 0.1 1006336